Regional Weather Roundup
Issued by NWS

Home | Current Version | Previous Version | Graphics & Text | Print | Product List | Glossary On
Versions: 1 2 3 4 5 6 7 8 9 10 11 12 13 14 15 16 17 18 19 20 21 22 23 24 25 26 27 28 29 30 31 32 33 34 35 36 37 38 39 40 41 42 43 44 45 46 47 48 49 50
000
ASUS43 KMKX 241120
RWRWI

WISCONSIN REGIONAL WEATHER ROUNDUP
NATIONAL WEATHER SERVICE MILWAUKEE/SULLIVAN WI
500 AM CST FRI NOV 24 2017

NOTE: "FAIR" INDICATES FEW OR NO CLOUDS BELOW 12,000 FEET WITH NO
SIGNIFICANT WEATHER AND/OR OBSTRUCTIONS TO VISIBILITY.

WIZ001-002-006>008-014>016-023>028-241200-
NORTHWEST WISCONSIN

CITY           SKY/WX    TMP DP  RH WIND       PRES   REMARKS
SUPERIOR ARPT  CLOUDY    41  34  74 SW7       29.32S
ASHLAND        CLOUDY    45  32  60 S15G22    29.34F
HAYWARD        CLEAR     41  32  70 S13       29.39F
SIREN          PTCLDY    43  34  70 S6        29.38F
CUMBERLAND     CLEAR     37  32  81 S8        29.42F WCI  31
RICE LAKE      CLEAR     37  32  84 SE6       29.44F WCI  32
CHETEK         CLEAR     41  34  74 S7        29.44F
LADYSMITH      CLEAR     37  30  75 SE5       29.46F WCI  34
EAU CLAIRE     CLEAR     43  33  68 S9        29.46F
MENOMONIE      CLEAR     44  34  68 SE5       29.46F
NEW RICHMOND   CLEAR     44  34  69 S9        29.43F
OSCEOLA        CLEAR     43  35  73 S9        29.44F
$$

WIZ003>005-009-010-017-018-241200-
NORTH CENTRAL WISCONSIN

CITY           SKY/WX    TMP DP  RH WIND       PRES   REMARKS
MANITOWISH WTR PTCLDY    40  32  74 SW9       29.41F WCI  33
ARBOR VITAE    CLEAR     39  31  73 S12       29.42F WCI  32
WOODRUFF       CLEAR     39  31  73 S12       29.42F WCI  32
RHINELANDER    CLEAR     38  29  70 SW12      29.46F WCI  30
EAGLE RIVER    CLEAR     38  28  67 SW7       29.42F WCI  33
LAND O LAKES   CLEAR     38  29  70 S8        29.43F WCI  32
PHILLIPS       CLEAR     41  32  70 SW12      29.43F
TOMAHAWK       CLEAR     38  29  71 S3        29.48F
MEDFORD        CLOUDY    39  30  71 S12       29.48F WCI  32
MERRILL        PTCLDY    39  30  69 SW8       29.49F WCI  34
$$

WIZ029-030-035-036-043>047-241200-
CENTRAL WISCONSIN

CITY           SKY/WX    TMP DP  RH WIND       PRES   REMARKS
WAUSAU         PTCLDY    39  29  67 S9        29.50F WCI  33
MOSINEE        PTCLDY    39  32  75 S14       29.53F WCI  31
MARSHFIELD     CLEAR     41  30  65 SW9       29.51F
STEVENS POINT  PTCLDY    38  29  69 S8        29.54F WCI  32
WAUPACA        PTCLDY    43  30  60 SW10      29.57F
WAUTOMA        CLOUDY    40  29  64 S8        29.59F WCI  34
WISC RAPIDS    PTCLDY    43  31  62 SW16G22   29.55F
CAMP DOUGLAS   CLEAR     47  32  57 S3G17     29.56F
$$

WIZ011>013-019>022-031-037>040-048>050-241200-
NORTHEAST WISCONSIN

CITY           SKY/WX    TMP DP  RH WIND       PRES   REMARKS
ANTIGO         CLEAR     39  30  68 SW15      29.50F WCI  31
SHAWANO        PTCLDY    41  29  63 SW7       29.54F
OCONTO         CLOUDY    41  29  61 SW9       29.54F
STURGEON BAY   PTCLDY    39  28  64 S13       29.55F WCI  31
GREEN BAY      CLOUDY    40  31  70 S13       29.57F WCI  32
MANITOWOC      MOCLDY    38  29  70 S8        29.62F WCI  32
APPLETON       CLOUDY    39  27  60 S17       29.57F WCI  30
CLINTONVILLE   CLOUDY    39  28  65 SW9       29.55F WCI  33
OSHKOSH        CLOUDY    41  30  65 S21G28    29.59F
$$

WIZ032>034-041-042-053>061-241200-
SOUTHWEST WISCONSIN

CITY           SKY/WX    TMP DP  RH WIND       PRES   REMARKS
LA CROSSE      CLEAR     43  33  68 SE9       29.56F
SPARTA         CLEAR     42  33  71 S6        29.57F
VIROQUA        CLEAR     43  34  71 S9        29.58F
BOSCOBEL       PTCLDY    35  29  78 SW5       29.63F WCI  31
PRAIRIE DU CHI CLEAR     45  32  59 E5        29.62F
PLATTEVILLE    CLEAR     36  31  83 S12       29.67F WCI  28
$$

WIZ056-057-062-063-064-067-068-241200-
SOUTH CENTRAL WISCONSIN

CITY           SKY/WX    TMP DP  RH WIND       PRES   REMARKS
REEDSBURG      CLEAR     41  31  67 SW7       29.61F
BARABOO/DELLS  CLEAR     45  30  56 S20G25    29.60F
LONE ROCK      NOT AVBL
MINERAL POINT  CLOUDY    39  32  75 S13       29.66F WCI  32
MADISON        CLOUDY    39  29  67 S8        29.67F WCI  33
MIDDLETON      CLOUDY    42  31  66 SW12      29.68S
WATERTOWN      PTCLDY    38  30  74 S8        29.69F WCI  32
MONROE         CLEAR     36  30  80 S17       29.68F WCI  25
JANESVILLE     CLOUDY    37  30  75 SW12      29.72F WCI  30
$$

WIZ051-052-058>065-066-070>072-241200-
SOUTHEAST WISCONSIN

CITY           SKY/WX    TMP DP  RH WIND       PRES   REMARKS
MILWAUKEE      MOCLDY    41  29  62 SW17G26   29.71F
WAUKESHA       CLOUDY    37  28  70 SW12      29.72F WCI  30
MILWAUKEE/TIMM PTCLDY    41  27  56 SW12      29.71F
RACINE         PTCLDY    38  28  67 SW9       29.74F WCI  31
BURLINGTON     PTCLDY    41  34  77 S9        29.72F
KENOSHA        PTCLDY    38  28  67 SW12      29.74F WCI  30
FOND DU LAC    MOCLDY    41  28  60 S18G25    29.63F
SHEBOYGAN      PTCLDY    42  31  64 SW12      29.65F
WEST BEND      CLOUDY    43  30  61 SW14      29.67F
JUNEAU         CLOUDY    37  29  74 S13       29.67F WCI  28
$$

LSZ147-162-241200-
LAKE SUPERIOR

STATION/POSITION TIME  TEMP    WIND        PRES    WAVE
                       AIR SEA DIR/SP/G            HT/PER
                 (UTC) (F)     (DEG/KT/KT) (MB)    (FT/S)
DEVILS ISLAND    1100   43     250/ 15/ 18  992.2F
SAXON HARBOR     1040   49     190/  9/ 18  992.9F
$$

LMZ867-665-643>646-241200-
LAKE MICHIGAN

STATION/POSITION TIME  TEMP    WIND        PRES    WAVE
                       AIR SEA DIR/SP/G            HT/PER
                 (UTC) (F)     (DEG/KT/KT) (MB)    (FT/S)
N MID LAKE BUOY  1050   46 47  200/ 29/ 35 1000.1F   9/ 7
NORTHPORT PIER   1100   41     170/  8/ 16  999.7F
KEWAUNEE LAKESHO 1054   38     190/ 11/ 13 1001.8F
SHEBOYGAN LAKESH 1100   40     200/ 16/ 18 1004.3F
PORT WASHINGTON  1040   38     200/  7/  8 1006.8F
MILWAUKEE LAKESH 1100   41     230/ 15/ 17   N/A
S MID LAKE BUOY  1050   44 47  220/ 19/ 23 1008.2F   4/ 5
KENOSHA   LAKESH 1100   40     210/  9/ 14 1007.5
$$

TC  - TEMPERATURE IN CELSIUS
VSB - VISIBILITY IN STATUTE MILES
WCI - WIND CHILL INDEX
HX  - HEAT INDEX





USA.gov is the U.S. government's official web portal to all federal, state and local government web resources and services.